Regional Weather Roundup
Issued by NWS Upton, NY

Current Version | Previous Version | Graphics & Text | Print | Product List | Glossary Off
Versions: 1 2 3 4 5 6 7 8 9 10 11 12 13 14 15 16 17 18 19 20 21 22 23 24 25 26 27 28 29 30 31 32 33 34 35 36 37 38 39 40 41 42 43 44 45 46 47 48 49 50

000
ASUS41 KOKX 010804
RWROKX

REGIONAL WEATHER ROUNDUP
NATIONAL WEATHER SERVICE NEW YORK NY
400 AM EDT SAT OCT 01 2016

NOTE: "FAIR" INDICATES FEW OR NO CLOUDS BELOW 12,000 FEET WITH NO
SIGNIFICANT WEATHER AND/OR OBSTRUCTIONS TO VISIBILITY.

NYZ071-072-176-178-NJZ106-104-010900-
NEW YORK CITY METRO AREA

CITY           SKY/WX    TMP DP  RH WIND       PRES   REMARKS
Central Park   CLOUDY    56  53  90 NE8       30.23F
LaGuardia APRT CLOUDY    58  55  90 N15       30.20F
Kennedy INTL   CLOUDY    58  55  90 N15       30.20F
Newark/Liberty DRIZZLE   56  54  93 N13       30.21F
Bronx Bot Gard   N/A     55  52  88 N9        30.24R
Wall St Helipt CLOUDY    59  57  94 NE10G18   30.21F
Teterboro      CLOUDY    56  53  90 N8        30.21F
$$

NYZ177-179-078>081-010900-
LONG ISLAND NEW YORK

CITY           SKY/WX    TMP DP  RH WIND       PRES   REMARKS
Farmingdale    CLOUDY    59  57  93 NE15G23   30.20S
MacArthur/ISP  CLOUDY    59  58  96 N13       30.18F FOG
Shirley        CLOUDY    59  58  96 N8        30.19F
Riverhead      NOT AVBL
Westhampton    CLOUDY    60  58  92 NE14G23   30.20F
Southampton      N/A     59  59 100 NE8       30.15F
Bridgehampton    N/A     59  57  94 S6        30.04F
East Hampton   CLOUDY    60  58  96 NE10G18   30.19F
Montauk          N/A     61  60  97 NE14G22   30.20F
$$

NYZ052-065-067-010900-
HUDSON VALLEY

CITY           SKY/WX    TMP DP  RH WIND       PRES   REMARKS
White Plains   CLOUDY    54  52  93 N9        30.22F FOG
Newburgh       NOT AVBL
Montgomery     LGT RAIN  52  51  97 NE12      30.26F FOG
Poughkeepsie   CLOUDY    51  51 100 N7        30.27F FOG
Albany         CLOUDY    50  47  89 N5        30.33F
$$

NJZ001-105-106-008-010-013-015-019>022-104-010900-
NEW JERSEY

CITY           SKY/WX    TMP DP  RH WIND       PRES   REMARKS
Newark/Liberty DRIZZLE   56  54  93 N13       30.21F
Teterboro      CLOUDY    56  53  90 N8        30.21F
Caldwell       CLOUDY    56  53  90 NE9       30.23F
Morristown     CLOUDY    55  54  94 NE9       30.23S
Somerville     CLOUDY    56  53  90 VRB7      30.20F
Linden         NOT AVBL
Sussex         CLOUDY    52  51  97 NE15      30.25F FOG
Abdover          N/A     52  51  97 NE7       30.24S
Trenton        CLOUDY    56  54  93 NE10      30.19F
Millville      CLOUDY    62  62 100 NE13G20   30.14F
Atlantic City  CLOUDY    63  61  93 NE14G22   30.14S FOG
Wrightstown    NOT AVBL
Toms River     NOT AVBL
Belmar         CLOUDY    58  57  97 N10       30.18F FOG
$$

PAZ047>061-062-071-010900-
EASTERN PENNSYLVANIA

CITY           SKY/WX    TMP DP  RH WIND       PRES   REMARKS
Philadelphia   CLOUDY    58  56  93 NE12G21   30.18S
Allentown      CLOUDY    55  51  86 NE10      30.21F
Scranton       CLOUDY    55  50  83 NE9       30.21F
$$

CTZ002-004>006-009-010-012-RIZ004-006-007-MAZ004-011-015-010900-
SOUTHERN NEW ENGLAND
 IN CT

CITY           SKY/WX    TMP DP  RH WIND       PRES   REMARKS
Bradley INTL   LGT RAIN  49  47  93 N14       30.29F FOG
Hartford       RAIN      51  50  96 N9        30.27F FOG
Danbury        CLOUDY    52  51  97 N7        30.26S
Wtrbury/Oxford NOT AVBL
Bridgeport     CLOUDY    57  51  80 NE16      30.22F
Meriden        CLOUDY    53  49  86 N9        30.26S
New Haven      CLOUDY    53  51  93 N15       30.22F
Chester        CLOUDY    55  55 100 N7        30.23F FOG
Groton         CLOUDY    61  57  87 NE13      30.21S
Wilimantic     CLOUDY    57  55  93 N6        30.26F

 IN RI

CITY           SKY/WX    TMP DP  RH WIND       PRES   REMARKS
Providence     LGT RAIN  58  56  93 N12       30.26F FOG
Block Island   LGT RAIN  60  59  96 NE18G25   30.20F
Westerly       CLOUDY    59  56  89 NE9G21    30.22F
 IN MA

CITY           SKY/WX    TMP DP  RH WIND       PRES   REMARKS
Boston         LGT RAIN  57  57 100 NE18G28   30.30F FOG
Worcester      CLOUDY    49  48  97 NE14G21   30.29F FOG
Westfield      CLOUDY    48  47  96 N13G22    30.31S
Provincetown   LGT RAIN  57  56  96 E20G28    30.27F FOG
Nantucket      LGT RAIN  61  59  93 NE20G30   30.20S FOG
$$

ANZ330-335-338-340-345-350-353-355-010900-
COASTAL MARINE OBSERVATIONS


STATION/POSITION TIME  SKY/WX   TEMP    WIND        PRES    VSBY  WAVE
                                AIR SEA DIR/SP/G                  HT/PER
                 (UTC)          (F)     (DEG/KT/KT) (MB)    (MI)  (FT/S)
NY HARB ENTRANCE 0650            62 68   30/ 21/ 25 1021.5          8/ 9
20S FIRE ISLAND  0650            64 68   50/ 25/ 31 1020.0         10/ 9
GREAT SOUTH BAY  0715            60 64   30/ 16/ 21   N/A
23 SSW MONTAUK P 0650            63 65   50/ 23/ 31 1021.1         10/ 9
15 E BARNEGAT LI 0730               69                N/A           9/ 9
HUDSON CANYON    0650            70 71              1019.0          9/ 8
KINGS POINT      0630            58 68              1023.2
EXECUTION ROCKS  0745            60      30/ 14/ 21   N/A
CENTRAL LI SOUND 0730            60 70   30/ 17/ 21   N/A           2/ 4
EASTERN LI SOUND NOT AVBL
ROBBINS REEF     0630            58      30/ 13/ 17 1023.7
$$


>>>>>>>>>>>>>>>>>>>>>>>>>>>> KEY <<<<<<<<<<<<<<<<<<<<<<<<<<<
>                                                          <
>     SKY/WX - Sky Condition/Present Weather               <
>     TMP    - Temperature in Fahrenheit                   <
>     DP     - Dew Point in Fahrenheit                     <
>     RH     - Relative Humidity in Percent                <
>     WIND   - Direction (from) and Speed in MPH           <
>     PRES   - Mean Sea Level Pressure (inches of Hg)      <
>     WCI    - Wind Chill Index                            <
>     VSB    - VISIBILITY IN MILES                         <
>     HX     - HEAT INDEX                                  <
>     TC     - TEMPERATURE IN CELSIUS                      <
>     VRB    - VARIABLE WIND DIRECTION                     <
>                                                          <
>>>>>>>>>>>>>>>>>>>>>>>>>>>> KEY <<<<<<<<<<<<<<<<<<<<<<<<<<<




USA.gov is the U.S. government's official web portal to all federal, state and local government web resources and services.